This is the latest recevied weather packets stored in our database for station/object EA5FOG-11. If no packets are shown the sender has not sent any weather packets the latest 10 day(s).
| Time | Temp. | Humidity | Pressure | Rain* | Wind** | Luminosity | Snow |
|---|---|---|---|---|---|---|---|
| 1777857514 | 17.22° C | 67% | 955.5 hPa | - | - | - | - |
| 1777856614 | 17.22° C | 67% | 955.5 hPa | - | - | - | - |
| 1777855713 | 16.67° C | 67% | 955.7 hPa | - | - | - | - |
| 1777854812 | 17.22° C | 67% | 955.7 hPa | - | - | - | - |
| 1777853911 | 17.22° C | 66% | 955.8 hPa | - | - | - | - |
| 1777853010 | 17.78° C | 66% | 955.9 hPa | - | - | - | - |
| 1777852110 | 17.78° C | 66% | 956 hPa | - | - | - | - |
| 1777851209 | 17.78° C | 65% | 956 hPa | - | - | - | - |
| 1777849427 | 17.78° C | 65% | 956 hPa | - | - | - | - |
| 1777848526 | 17.78° C | 65% | 956.1 hPa | - | - | - | - |
| 1777847625 | 17.78° C | 64% | 956 hPa | - | - | - | - |
| 1777846724 | 17.22° C | 64% | 956 hPa | - | - | - | - |
| 1777845823 | 17.22° C | 63% | 956 hPa | - | - | - | - |
| 1777844922 | 17.78° C | 63% | 956.1 hPa | - | - | - | - |
| 1777844021 | 18.33° C | 62% | 956.1 hPa | - | - | - | - |
| 1777843120 | 17.78° C | 62% | 956.1 hPa | - | - | - | - |
| 1777842220 | 18.33° C | 61% | 955.9 hPa | - | - | - | - |
| 1777841319 | 18.33° C | 61% | 955.7 hPa | - | - | - | - |
| 1777840418 | 18.33° C | 60% | 955.5 hPa | - | - | - | - |
| 1777839517 | 18.89° C | 60% | 955.2 hPa | - | - | - | - |
| 1777838616 | 18.89° C | 59% | 955 hPa | - | - | - | - |
| 1777837716 | 19.44° C | 58% | 954.8 hPa | - | - | - | - |
| 1777836815 | 19.44° C | 58% | 954.6 hPa | - | - | - | - |
| 1777835914 | 20° C | 57% | 954.5 hPa | - | - | - | - |
| 1777835013 | 20° C | 57% | 954.3 hPa | - | - | - | - |
* Rain since midnight (hover to see other rain measurements)
** Current wind speed in m/s (hover to see current wind gust speed)